User: anonymous   Login
Location: Keppel Henge
(44.7900°N, 80.9447°W)
Time: 19:02:58
(UTC-04:00)
Language:

Tiangong 2 - Orbit

View from above orbital plane
View from above orbital plane
View from above satellite
View from above satellite

Ground track
Ground track

The orbit data is extracted from the following two-line orbital elements,

1 41765U 16057A   17295.45476545  .00005877  00000-0  77345-4 0  9993
2 41765  42.7845 318.8127 0002311  22.8081 116.9878 15.59264581 62849
Epoch (UTC): 22 October 2017 10:54:51
Eccentricity: 0.0002311
inclination: 42.7845°
perigee height: 388 km
apogee height: 391 km
right ascension of ascending node: 318.8127°
argument of perigee: 22.8081°
revolutions per day: 15.59264581
mean anomaly at epoch: 116.9878°
orbit number at epoch: 6284

The dashed part of the orbit path shows where the satellite is in the earth's shadow,  

DLR